Location: Seagrave Observatory
(41.8500°N, 71.5833°W)
Time: 06:45:32
(UTC-04:00)

Daily predictions for brighter satellites

Satellite Brightness Start Highest point End
(mag) Time Altitude Azimuth Time Altitude Azimuth Time Altitude Azimuth
Meteor 1-12 Rocket 4.4 20:32:43 10° N 20:38:47 80° E 20:44:46 10° SSE
Cosmos 1680 Rocket 4.3 20:38:02 10° SSE 20:42:32 30° E 20:47:04 10° NE
SL-27 R/B 4.3 20:41:58 10° SE 20:44:07 15° E 20:46:15 10° ENE
SPOT 5 4.4 20:44:38 10° ESE 20:47:23 17° ENE 20:50:10 10° NNE
Cosmos 1812 4.3 20:44:45 10° SSW 20:48:25 40° WNW 20:52:06 10° N
Cosmos 1709 Rocket 4.4 20:46:06 10° NNW 20:52:22 71° W 20:58:30 10° S
Cosmos 1743 3.1 20:49:34 10° N 20:53:21 48° ENE 20:57:07 10° SSE
Iridium 4 Rocket 4.1 20:50:04 10° N 20:54:57 61° W 21:00:17 10° SSW
Cosmos 1346 3.8 20:52:36 10° SSE 20:55:02 28° E 20:57:29 10° NNE
Envisat 3.1 20:51:18 10° S 20:56:22 80° WSW 21:01:29 10° NNW
Spot 1 4.3 20:54:39 10° S 20:59:15 79° WSW 21:03:37 10° NNW
ASTRO E2 4.4 20:58:14 10° SW 21:01:01 18° S 21:03:15 12° SE
ASTEX 1 3.8 20:57:22 10° SSE 21:02:02 44° ENE 21:06:41 10° N
Aureole 3 Rocket 3.9 20:56:17 10° S 21:02:57 57° E 21:07:44 10° NNE
Tiangong 2 2.1 21:08:28 10° SSW 21:11:12 27° SSE 21:13:19 14° E
Cosmos 1437 Rocket 4.4 21:09:16 10° NNE 21:12:02 19° ENE 21:13:57 14° ESE
Aureole 1 Rocket 2.9 21:09:20 10° S 21:12:31 35° ESE 21:15:21 10° NE
Okean 1-7 Rocket 4.3 21:08:52 11° SSE 21:12:44 35° E 21:16:49 10° NNE
NOSS 2-2 (E) 3.6 21:09:44 10° SW 21:13:45 81° NW 21:18:27 10° NE
Cosmos 1238 Rocket 4.4 21:08:30 10° SSE 21:14:56 52° E 21:21:18 10° NNE
DNEPR-1 R/B 3.8 21:12:45 10° NNW 21:16:56 56° NE 21:20:18 17° SE
Meteor 2-4 Rocket 3.8 21:14:49 10° S 21:20:18 60° E 21:26:00 10° NNE
ISS -3.0 21:20:32 10° SSW 21:23:27 30° SE 21:26:23 10° ENE
Cosmos 1666 2.6 21:20:15 10° N 21:24:01 76° E 21:26:56 16° SSE
Meteor 2-13 Rocket 4.4 21:19:54 10° N 21:25:59 88° E 21:32:04 10° S
Cosmos 923 Rocket 4.2 21:22:35 10° SSW 21:27:54 80° WNW 21:33:15 10° NNE
OAO 2 Rocket 3.9 21:23:31 10° WSW 21:28:02 36° S 21:31:02 19° ESE
Cosmos 2184 Rocket 4.1 21:26:07 10° N 21:32:30 83° W 21:38:47 10° S
Cosmos 2074 Rocket 4.1 21:26:27 10° N 21:32:42 79° W 21:38:57 10° S
CZ-3A R/B 2.1 21:30:04 10° SSW 21:33:08 22° SSE 21:33:08 22° SSE
Cosmos 1610 Rocket 4.5 21:30:13 10° N 21:36:32 76° E 21:41:40 16° SSE
USA 245 2.9 21:38:45 33° ESE 21:39:21 39° ENE 21:41:41 10° N
Cosmos 1606 Rocket 4.2 21:35:41 10° N 21:39:45 38° ENE 21:41:41 25° SE
Intercosmos 24 3.8 21:37:17 10° N 21:41:20 61° E 21:43:05 27° SSE
YAOGAN 11 4.0 21:40:58 23° SSE 21:43:37 73° ENE 21:47:57 10° N
YAOGAN 6 3.9 21:42:06 10° SSW 21:45:15 35° W 21:48:30 10° NNW
Cosmos 1656 Rocket 4.3 21:40:05 10° NW 21:45:20 50° WSW 21:49:50 14° S
ERS-1 Rocket 3.3 21:41:29 13° S 21:45:52 64° WSW 21:50:53 10° NNW
USA 267 4.4 21:42:29 10° ENE 21:46:46 20° ESE 21:46:46 20° ESE
MetOp-A 4.2 21:45:09 17° S 21:49:17 82° WSW 21:54:40 10° NNW
Meteor 1-23 Rocket 4.1 21:43:56 10° S 21:49:29 82° E 21:55:07 10° NNE
MOS 1-B Rocket 4.0 21:46:03 18° SSE 21:50:27 86° WSW 21:56:48 10° NNW
Cosmos 1726 Rocket 4.1 21:46:37 10° N 21:50:44 42° ENE 21:52:23 29° SE
Cosmos 405 Rocket 4.4 21:48:53 10° SW 21:52:17 33° WNW 21:55:47 10° N
GENESIS II 4.2 21:49:24 10° NW 21:53:22 77° WSW 21:55:01 33° SSE
Cosmos 1515 4.2 21:53:04 33° SE 21:53:58 39° E 21:57:32 10° NNE
H-2A R/B 2.2 21:52:51 27° SE 21:55:21 53° ENE 22:00:14 10° N
Cosmos 1980 Rocket 4.4 21:53:55 10° NNE 21:56:50 14° NE 21:59:45 10° ENE
Cosmos 2058 Rocket 3.8 21:53:04 10° N 21:57:10 37° ENE 21:58:34 29° ESE
Meteor 1-15 Rocket 4.1 21:52:22 10° N 21:58:00 83° ENE 22:01:25 24° SSE
Cosmos 2112 Rocket 4.5 21:55:36 10° SSW 22:00:46 62° WNW 22:05:57 10° NNE
Cosmos 1025 Rocket 3.1 21:58:34 16° SSW 22:01:57 73° W 22:06:14 10° N
CENTAUR R/B 3.7 21:55:28 10° NW 22:03:07 51° WSW 22:09:18 18° S
Cosmos 1441 Rocket 4.2 22:01:24 10° SSW 22:04:59 44° WNW 22:08:35 10° N
Cosmos 1624 Rocket 4.0 22:03:13 10° NNW 22:08:32 76° ENE 22:10:57 33° SSE
PSLV R/B 3.0 22:07:37 10° W 22:10:40 64° SSW 22:10:40 64° SSW
Cosmos 2154 Rocket 4.2 22:09:46 10° NNW 22:16:06 71° W 22:20:26 21° S
SL-08 RB Rocket 3.8 22:14:43 31° S 22:16:46 70° WSW 22:21:14 10° NNW
ARGOS 3.5 22:13:33 23° S 22:16:53 62° WSW 22:22:17 10° NNW
Nimbus 7 Rocket 4.4 22:11:23 10° NNE 22:17:30 89° ESE 22:22:27 16° SSW
SL-27 R/B 4.2 22:15:41 10° SW 22:19:01 33° WNW 22:22:23 10° N
SL-8 Rocket 4.2 22:14:11 10° N 22:20:21 58° E 22:23:02 33° SE
Landsat 7 3.8 22:21:40 41° SSE 22:23:19 75° ENE 22:28:05 10° N
Cosmos 2366 rocket 4.4 22:18:25 10° N 22:24:20 45° ENE 22:26:33 33° SE
SPOT 5 3.4 22:23:04 26° SSW 22:25:07 45° W 22:29:18 10° NNW
H-2A R/B 2.5 22:24:49 42° ESE 22:25:56 53° ENE 22:30:22 10° N
Cosmos 2278 3.8 22:20:52 10° NNW 22:26:35 66° ENE 22:28:45 38° SE
Cosmos 2056 Rocket 3.4 22:22:03 10° NNW 22:27:15 80° WSW 22:29:09 40° S
Cosmos 2082 Rocket 2.6 22:28:02 38° SE 22:29:12 43° ESE 22:34:32 10° NE
Iridium 82 4.5 22:33:34 10° N 22:37:08 77° W 22:37:24 70° SW
Cosmos 1626 Rocket 4.0 22:37:17 42° E 22:37:17 42° E 22:41:22 10° NNE
Terra 1.8 22:37:12 50° SE 22:38:22 74° ENE 22:43:08 10° N
CZ-4B R/B 4.0 22:33:58 10° NNE 22:38:43 40° E 22:39:09 39° ESE
Cosmos 839 Rocket 4.3 22:34:51 10° NNW 22:41:26 86° WSW 22:44:54 36° SSE
Cosmos 2341 Rocket 4.4 22:37:57 10° NNW 22:44:09 59° W 22:47:39 27° SSW
Cosmos 2369 3.6 22:39:25 10° NNW 22:45:12 90° NE 22:46:58 47° SSE
Cosmos 967 Rocket 4.5 22:39:06 10° SSW 22:45:21 83° WNW 22:51:41 10° NNE
Spot 4 4.3 22:45:18 42° ESE 22:46:09 47° ENE 22:50:45 10° N
SPOT 1/Viking Rocket 4.3 22:44:17 28° SSW 22:46:33 45° W 22:51:30 10° NNW
COSMOS 2487 2.5 22:47:21 73° NNE 22:47:21 73° NNE 22:50:38 10° NNE
Tiangong 2 3.3 22:44:34 10° WSW 22:45:36 19° WSW 22:45:36 19° WSW
Cosmos 1437 Rocket 4.3 22:45:03 10° NNW 22:48:21 28° W 22:49:25 24° WSW
Cosmos 1959 Rocket 4.5 22:44:50 10° N 22:51:14 83° E 22:53:30 43° SSE
SL-08 R/B 4.4 22:45:09 10° N 22:51:17 73° E 22:53:11 46° SSE
SL-16 R/B 4.5 22:51:35 10° NNE 22:54:42 15° NE 22:57:47 10° E
Cosmos 1697 Rocket 3.0 22:49:25 10° NNW 22:54:57 56° ENE 22:56:25 43° ESE
Cosmos 1953 4.4 22:52:42 10° NNE 22:55:13 17° ENE 22:55:13 17° ENE
IGS 5A 3.4 22:56:43 68° SW 22:57:03 72° WSW 23:01:13 10° NNW
Cosmos 1452 Rocket 3.4 22:54:15 10° NNW 22:59:33 82° ENE 23:00:34 59° SE
ISS -2.2 22:56:48 10° W 22:59:53 36° NNW 23:02:59 10° NE
Cosmos 2218 Rocket 3.9 22:54:24 10° N 23:00:35 84° W 23:02:39 45° S
DELTA 2 DEB (DPAF) 4.3 23:01:37 57° E 23:01:54 58° ENE 23:06:19 10° N
Cosmos 1271 Rocket 3.8 23:02:31 10° N 23:05:37 36° NE 23:05:37 36° NE
Cosmos 2228 3.7 23:02:09 10° NNW 23:06:15 43° W 23:06:54 40° WSW
Cosmos 1602 Rocket 3.4 23:10:37 82° WSW 23:10:44 84° W 23:15:05 10° N
deb Chang Zheng 4 3.8 23:06:31 10° N 23:10:47 63° WNW 23:11:26 54° WSW
Cosmos 921 Rocket 4.0 23:08:15 10° NW 23:12:22 36° W 23:12:53 35° WSW
Cosmos 1833 Rocket 2.6 23:11:23 49° SSW 23:13:01 89° WNW 23:18:41 10° NNE
Cosmos 1656 3.6 23:09:57 10° NNW 23:15:24 72° WSW 23:16:17 60° SSW
Lacrosse 5 rocket 4.4 23:16:54 10° NNW 23:19:37 15° NNE 23:22:18 10° NE
Meteor 1-21 4.1 23:19:44 62° SSE 23:20:37 75° E 23:26:21 10° NNE
Cosmos 468 4.4 23:24:10 64° SSW 23:25:00 85° WNW 23:30:19 10° NNE
CZ-4 R/B 4.3 23:20:21 10° N 23:25:18 62° WNW 23:26:31 47° SW
Cosmos 1766 3.7 23:21:53 10° N 23:25:11 60° NNW 23:25:11 60° NNW
Nadezhda 3 Rocket 4.0 23:29:12 57° SSE 23:30:27 71° E 23:36:48 10° NNE
USA 267 3.1 23:24:05 10° NE 23:30:39 79° SE 23:34:02 31° SW
Meteor 1-4 Rocket 4.1 23:27:42 10° NNW 23:30:20 30° WNW 23:30:20 30° WNW
Cosmos 1758 4.2 23:30:46 10° N 23:33:51 43° NE 23:33:51 43° NE
H-2A R/B 4.0 23:33:29 15° WSW 23:35:07 17° W 23:38:23 10° NW
Cosmos 1980 Rocket 2.1 23:36:07 10° NNW 23:41:49 79° ENE 23:42:26 69° SE
Cosmos 1470 4.4 23:39:44 10° NNE 23:42:26 28° NE 23:42:26 28° NE
SeaSat 1 2.7 23:46:39 58° E 23:47:01 59° ENE 23:51:53 10° NNW
SME Rocket 3.5 23:46:35 73° SE 23:47:04 81° ENE 23:51:30 10° NNW
Cosmos 1821 Rocket 4.0 23:43:02 10° N 23:49:17 68° E 23:50:18 59° SE
Cosmos 2322 Rocket 3.3 23:44:58 10° N 23:50:11 35° ENE 23:51:42 30° E
